Stampede Pass, WA
on Wednesday, February 6, 2013

Wednesday
Previous Day Next Day
Daily Summary
 ActualAverage (KEAT)Record (KEAT)
Temperature
Mean Temperature °F 33°F  
Max Temperature 32°F 39°F 56°F (1967)
Min Temperature 28°F 27°F 0°F (2014)
Degree Days
Heating Degree Days 35 32  
Month to date heating degree days 195  
Since 1 July heating degree days 3815  
Cooling Degree Days 0 0  
Month to date cooling degree days 0  
Year to date cooling degree days 0  
Moisture
Dew Point 28°F   
Average Humidity 93    
Maximum Humidity 100    
Minimum Humidity 85    
Precipitation
Precipitation 0.09 in 0.03 in 0.41 in (1996)
Month to date precipitation 0.18  
Year to date precipitation 1.24  
Wind
Wind Speed 7 mph   
Max Wind Speed 9 mph   
Max Gust Speed 21 mph   
Visibility 3 miles   
Events Fog , Snow   

Key: T is trace of precipitation, MM is missing value
Source: NWS Daily Summary
Time(PST)TemperatureDew PointHumidity Pressure Visibility Wind DirectionWind SpeedGust SpeedPrecipitationEvents Conditions
1:56 AM 28.9°F 27.0°F 92% 29.94 in 5.0 miles West 9.2 mph 20.7 mph 0.01 in   Overcast
2:08 AM 28.4°F 26.6°F 93% 29.87 in 1.0 miles West 8.1 mph 20.7 mph 0.00 in Snow Light Snow
2:29 AM 30.2°F 28.4°F 93% 29.88 in 0.5 miles Variable 4.6 mph - 0.03 in Fog , Snow Snow
2:38 AM 30.2°F 28.4°F 93% 29.88 in 1.0 miles Variable 6.9 mph - 0.03 in Snow Light Snow
2:53 AM 30.2°F 28.4°F 93% 29.88 in 0.8 miles West 8.1 mph - 0.04 in Snow Light Snow
3:56 AM 28.9°F 27.0°F 92% 29.97 in 0.8 miles Variable 5.8 mph - 0.05 in Snow Light Snow
4:35 AM 28.4°F 28.4°F 100% 29.90 in 0.8 miles Variable 3.5 mph - 0.03 in Snow Light Snow
5:03 AM 28.4°F 28.4°F 100% 29.91 in 0.5 miles Variable 4.6 mph - 0.00 in Fog , Snow Light Snow
6:56 AM 28.9°F 27.0°F 92% 30.01 in 0.8 miles Variable 5.8 mph - 0.03 in Snow Light Snow
7:18 AM 28.4°F 26.6°F 93% 29.94 in 0.8 miles West 9.2 mph 18.4 mph 0.02 in Snow Light Snow
8:12 AM 28.4°F 26.6°F 93% 29.94 in 2.0 miles West 9.2 mph 17.3 mph N/A   Overcast
8:56 AM 28.9°F 27.0°F 92% 30.02 in 10.0 miles West 5.8 mph 17.3 mph N/A   Mostly Cloudy
9:03 AM 28.4°F 26.6°F 93% 29.94 in 10.0 miles Variable 5.8 mph - N/A   Scattered Clouds
9:20 AM 28.4°F 26.6°F 93% 29.94 in 0.5 miles Variable 3.5 mph - N/A Fog Light Freezing Fog
9:47 AM 28.4°F 28.4°F 100% 29.95 in 1.0 miles Variable 3.5 mph - N/A   Mist
2:56 PM 32.0°F 28.0°F 85% 29.99 in 10.0 miles Calm Calm - N/A   Overcast
3:56 PM 30.9°F 28.9°F 92% 29.98 in 10.0 miles Variable 4.6 mph - N/A   Overcast
6:28 PM 30.2°F 28.4°F 93% 29.87 in 1.0 miles Variable 5.8 mph - 0.01 in   Overcast
7:56 PM 30.0°F 28.0°F 92% 29.92 in 1.2 miles Variable 5.8 mph - N/A   Overcast
8:07 PM 30.2°F 28.4°F 93% 29.84 in 0.8 miles Variable 5.8 mph - N/A   Mist
10:24 PM 30.2°F 28.4°F 93% 29.80 in 1.2 miles North - - N/A   Overcast
10:56 PM 30.0°F 28.0°F 92% 29.88 in 6.0 miles Variable 4.6 mph - N/A   Overcast
Moon Phase
Feb. 06 Feb. 10 Feb. 17 Feb. 25 Mar. 04
Sunrise:07:23 AM (PST) Moon Rise:04:20 AM (PST)2/6
Sunset:05:15 PM (PST) Moon Set:01:32 PM (PST)2/6

Copyright © 2014 The Weather Underground, Inc.